Home   Weather   Washington DC   Past weeks
Flag for USA

Past Weather in Washington DC, USA — August 2012

Now
66 °F

Passing clouds.


Feels Like: 66 °F
Forecast: 78 / 62 °F
Wind: 5 mph from Northeast

Location: Reagan National Airport

Current Time: Aug 25, 2019 at 5:28:12 am

Latest Report: Aug 25, 2019 at 4:52 am


Visibility: 10 mi

Pressure: 30.19 "Hg

Humidity: 78%

Dew Point: 59 °F

Location of Washington DCLocation

August 2012 Weather in Washington DC — Graph

°F

High & Low Weather Summary for August 2012

 TemperatureHumidityPressure
High97 °F (Aug 31, 3:52 pm)94% (Aug 9, 5:52 am)30.22 "Hg (Aug 9, 5:52 am)
Low66 °F (Aug 21, 5:52 am)26% (Aug 31, 1:52 pm)29.74 "Hg (Aug 10, 4:52 pm)
Average80 °F65%29.99 "Hg
* Reported Aug 1 12:52 am — Aug 31 11:52 pm, Washington DC. Weather by CustomWeather, © 2019

Note: Actual official high and low records may vary slightly from our data, if they occured in-between our weather recording intervals... More about our weather records

Advertising

Washington DC Weather History for August 1, 2012

Scroll right to see more
 ConditionsComfort  
Time TempWeatherWind HumidityBarometerVisibility
12:52 am
Wed, Aug 1
77 °FPassing clouds.7 mph77%29.92 "Hg10 mi
1:52 am76 °FPassing clouds.3 mph80%29.90 "Hg10 mi
2:52 am74 °FPassing clouds.5 mph82%29.88 "Hg10 mi
3:52 am74 °FPassing clouds.5 mph82%29.88 "Hg10 mi
5:01 am73 °FMostly cloudy.6 mph78%29.89 "Hg10 mi
5:52 am73 °FMostly cloudy.6 mph81%29.90 "Hg10 mi
6:52 am74 °FBroken clouds.6 mph79%29.89 "Hg10 mi
7:52 am74 °FCloudy.6 mph82%29.89 "Hg10 mi
8:52 am75 °FCloudy.8 mph79%29.91 "Hg10 mi
9:52 am77 °FMostly cloudy.3 mph74%29.90 "Hg10 mi
10:52 am80 °FBroken clouds.3 mph67%29.89 "Hg10 mi
11:52 am83 °FBroken clouds.6 mph59%29.89 "Hg10 mi
12:52 pm87 °FBroken clouds.5 mph50%29.86 "Hg10 mi
1:52 pm87 °FBroken clouds.7 mph53%29.85 "Hg10 mi
2:52 pm89 °FBroken clouds.7 mph48%29.83 "Hg10 mi
3:52 pm90 °FBroken clouds.7 mph47%29.82 "Hg10 mi
4:52 pm88 °FScattered clouds.12 mph54%29.82 "Hg10 mi
5:52 pm88 °FBroken clouds.7 mph50%29.81 "Hg10 mi
6:52 pm85 °FPartly sunny.10 mph63%29.83 "Hg10 mi
7:52 pm83 °FBroken clouds.10 mph65%29.83 "Hg10 mi
8:52 pm82 °FPartly cloudy.7 mph65%29.84 "Hg10 mi
9:52 pm81 °FPartly cloudy.6 mph67%29.86 "Hg10 mi
10:52 pm80 °FPassing clouds.5 mph71%29.87 "Hg10 mi
11:52 pm79 °FPassing clouds.No wind74%29.86 "Hg10 mi
Weather by CustomWeather, © 2019

See weather overview